Regional Weather Roundup
Issued by NWS Midland/Odessa, TX

Skip options and go directly to product.
Home | Oldest Version | Next Version | Current Version | All | Text Only | Save Text | Print | Product List | Glossary On

Skip product version selection by date and time.   
639
ASUS44 KMAF 311601
RWRMAF
MIDLAND AREA WEATHER ROUNDUP
NATIONAL WEATHER SERVICE MIDLAND TX
1100 AM CDT FRI JUL 31 2015

...IN SOUTHWEST TEXAS AND SOUTHEAST NEW MEXICO...

CITY           SKY/WX    TMP DP  RH WIND       PRES   REMARKS
ALPINE         SUNNY     82  53  35 NE5       30.33F
ANDREWS        FAIR      88  52  28 S6        30.23S
ARTESIA        MOSUNNY   81  64  57 N8G16     30.27R
BIG SPRING     SUNNY     84  55  36 S8        30.21F
CARLSBAD       SUNNY     85  64  49 NW13      30.23S
DRYDEN           N/A     91  60  35 VRB5      30.14S
FORT STOCKTON  SUNNY     88  53  30 SE5       30.20S
GUAD PASS      SUNNY     79  54  41 E9        30.38R
HOBBS          SUNNY     86  52  30 VRB5      30.26S
MARFA          SUNNY     82  52  34 E12       30.32S
MIDLAND AIRPK  SUNNY     89  54  30 S7        30.21S
MIDLAND INTL   SUNNY     89  55  31 S7        30.20S
ODESSA         SUNNY     89  53  29 S9        30.22S
PECOS          SUNNY     86  50  28 E3        30.18S
PRESIDIO       FAIR      88  55  32 MISG      30.17S
SEMINOLE       SUNNY     86  51  29 CALM      30.24F
SNYDER         SUNNY     86  59  40 SW10      30.19S
WINK           SUNNY     91  52  26 S8        30.18S
$$
...OTHER STATIONS IN TEXAS...

CITY           SKY/WX    TMP DP  RH WIND       PRES   REMARKS
ABILENE        SUNNY     94  62  34 NW3       30.14S
AMARILLO       LGT RAIN  67  64  90 NW13      30.31F
AUSTIN         PTSUNNY   89  70  53 SW6       30.04F
BROWNSVILLE    MOSUNNY   85  73  67 CALM      30.01F
CORPUS CHRISTI PTSUNNY   91  72  53 N5        30.02S
DALLAS FTW     MOSUNNY   89  71  55 SE9       30.08S
DEL RIO        SUNNY     91  66  43 CALM      30.07F
EL PASO        MOSUNNY   81  63  54 NE10      30.24S
HOUSTON INT    MOSUNNY   90  76  63 VRB7      30.02S HX 101
LUBBOCK        PTSUNNY   83  69  62 N7        30.24S
SAN ANGELO     SUNNY     92  64  39 W8        30.15S
SAN ANTONIO    PTSUNNY   90  69  50 NW6       30.07S
WACO           SUNNY     92  72  51 CALM      30.06F
WICHITA FALLS  NOT AVBL
$$
...OTHER LOCATIONS IN NEW MEXICO...

CITY           SKY/WX    TMP DP  RH WIND       PRES   REMARKS
ALAMAGORDO     MOSUNNY   81  57  44 N6        30.28F
ALBUQUERQUE    PTSUNNY   73  60  63 S8        30.38S
CANNON AFB     PTSUNNY   73  65  75 N9        30.31S
CLOVIS         PTSUNNY   73  64  73 N10       30.33S
HOLLOMAN AFB   MOSUNNY   83  57  41 W5        30.25F
ROSWELL        PTSUNNY   78  63  59 N10       30.27S
RUIDOSO          N/A    N/A N/A N/A MISG        N/A
SANTA FE       CLOUDY    69  57  65 S6        30.43S
TRUTH OR CONSE CLOUDY    71  62  73 CALM      30.32F
TUCUMCARI      LGT RAIN  69  65  86 CALM      30.31S
$$

USA.gov is the U.S. government's official web portal to all federal, state and local government web resources and services.